sat.trackr.live / text

‹ back to catalog

ONEWEB-0129

NORAD 47275 · 2020-100T

PAYLOAD ACTIVE UNKNOWN

§ Identity

Operator
Country
UK
Launch date
2020-12-18
Launch site
VOSTO
Launch vehicle
Mass (kg)
RCS (m²)

Purposes: comms

External: N2YO · Heavens-Above · Gunter

§ Orbital elements

Epoch: 2026-09-20T03:42:09.398016Z

Period
109.72 min
Inclination
87.8983°
Eccentricity
0.0000820
Mean motion
13.12443555 rev/d
Perigee alt
1,213.1 km
Apogee alt
1,214.3 km
Semi-major
7,591.9 km
B*
-8.2071e-4
RAAN
331.8066°
Arg perigee
112.7616°
Mean anomaly
247.3599°
Rev number
27,713

§ Raw data

ONEWEB-01291 47275U 20100T   26263.15427544 -.00000283  00000+0 -82071-3 0  99942 47275  87.8983 331.8066 0000820 112.7616 247.3599 13.12443555277133

JSON: /api/v1/satellites/47275 · /tle

For live sub-satellite position, see the globe view (requires WebGL).

§ Visibility from observer

Set your observer location to see the next 7 days of passes ≥ 10°. The values pass through the URL so the page stays shareable.

No JS? Fill the form by hand. The geolocation button needs JavaScript.